Wind_Speed
29 26 26 27 24 24 24 23 22 21 21 20 19 20 20 20 19 19 17 16 16 16 17 15 13 13 13 13 12 12 12 12 12 13 13 12 13 13 13 13 14 14 15 15
30 28 28 29 28 25 25 25 24 23 24 23 22 22 23 23 22 22 20 19 18 18 18 17 15 15 14 14 14 14 13 13 14 14 14 13 14 14 15 15 16 16 17 17
30 29 29 30 27 27 26 26 26 26 26 26 25 25 24 25 24 24 23 21 20 20 19 20 19 17 17 16 16 15 15 15 15 15 15 16 16 16 16 17 17 17 18 18
30 28 31 29 27 26 27 27 27 28 28 28 27 26 26 27 26 25 24 23 22 21 21 21 20 19 19 18 18 18 18 18 18 17 18 18 17 17 17 18 18 19 19 20
31 30 29 28 27 27 27 28 27 29 29 28 29 27 26 27 27 26 25 24 23 22 22 22 21 21 21 20 20 19 19 19 19 19 19 19 19 19 19 19 20 20 21 22
31 31 29 27 26 25 26 29 28 28 29 29 27 27 27 27 27 27 26 25 24 24 24 23 23 22 22 22 21 21 21 21 21 21 21 20 20 20 21 21 22 23 23 24
32 32 29 26 26 25 27 30 29 29 30 30 30 30 29 28 28 28 27 26 26 26 26 25 24 24 24 23 23 23 23 24 24 23 23 23 22 23 23 24 24 25 26 26
34 33 31 27 25 28 29 29 30 30 31 32 33 32 31 30 29 28 27 27 27 26 27 26 25 25 25 25 25 26 26 25 25 24 24 25 26 25 26 26 27 27 28 28
34 33 31 29 28 28 30 31 32 32 32 33 34 33 32 31 30 28 27 27 27 28 28 28 28 27 27 27 27 27 26 27 26 26 26 27 28 28 28 29 29 29 30 30
33 33 33 31 30 31 31 32 32 32 32 31 33 33 33 32 31 29 29 29 29 29 29 29 29 28 28 28 28 28 28 28 28 28 28 29 29 30 30 30 31 31 31 31
35 34 35 33 32 33 33 33 33 32 32 32 33 33 33 33 32 31 31 31 30 30 30 30 29 29 29 30 29 30 30 31 31 30 30 31 31 31 31 32 33 33 33 33
37 38 36 36 36 35 36 35 34 34 33 33 33 34 33 33 32 31 31 31 31 31 31 31 30 30 31 32 32 32 32 32 32 32 32 32 33 33 32 33 34 34 35 35
38 39 39 38 38 37 37 36 35 35 34 33 33 34 33 32 32 32 32 32 32 32 33 33 32 32 32 32 32 33 33 33 33 34 34 34 34 34 34 35 35 36 37 37
37 37 37 37 37 38 38 37 37 36 36 35 35 33 33 33 33 33 33 34 34 35 35 35 34 33 33 33 33 33 33 33 34 35 35 35 36 36 37 37 37 37 38 38
37 36 37 37 37 38 38 37 36 35 35 35 35 33 33 33 33 33 33 34 35 35 35 35 35 35 35 35 34 34 34 34 35 35 36 37 37 38 39 39 39 38 38 38
36 35 37 36 37 36 37 37 36 35 34 33 33 33 33 34 34 34 33 33 34 35 35 35 35 36 36 36 35 34 34 35 36 36 37 38 38 39 39 40 40 39 39 40
35 35 35 35 35 35 35 35 36 36 36 34 33 33 34 34 34 34 35 35 35 34 35 35 35 34 35 35 36 35 34 35 36 37 37 38 39 39 39 39 39 39 38 39
34 35 35 35 36 36 36 36 35 35 34 34 34 33 34 35 35 35 35 35 35 35 34 35 35 34 34 35 35 35 35 36 37 37 37 38 39 39 38 37 37 38 38 38
33 33 34 33 33 34 34 35 34 33 32 32 33 33 33 33 34 34 35 35 35 35 34 34 35 35 35 34 34 34 34 36 36 37 37 37 38 38 38 38 38 38 38 38
32 32 32 32 33 33 33 33 32 32 31 31 32 32 32 33 34 34 34 35 35 35 34 34 34 35 34 34 34 34 34 35 36 36 37 37 38 38 39 39 39 39 39 39
29 30 30 31 31 31 31 31 31 32 32 31 31 32 32 32 32 33 34 34 34 34 33 33 33 33 33 34 33 34 34 35 36 37 37 37 38 38 38 38 38 38 38 37
27 28 29 29 30 30 31 31 30 30 30 30 30 30 30 31 31 32 33 34 34 33 33 33 32 33 33 33 33 34 34 34 35 36 36 37 37 37 37 36 35 36 37 37
25 26 27 27 28 28 29 29 29 29 29 29 29 30 30 29 30 30 31 32 32 31 31 32 32 32 32 32 33 34 34 35 35 35 35 36 35 35 34 34 34 35 36 37
24 24 24 24 25 26 26 26 27 27 28 28 28 29 29 29 29 29 30 30 30 30 29 29 29 30 31 31 32 33 34 35 35 35 35 34 33 33 33 33 34 35 36 37
22 23 23 23 23 24 24 24 24 26 27 27 27 27 27 27 28 28 28 28 28 28 28 29 29 30 31 31 32 32 33 33 33 34 33 32 33 33 33 34 35 36 36 37
20 20 20 21 21 21 22 22 24 24 25 26 26 26 26 26 26 26 26 26 26 26 27 28 29 30 31 32 32 32 33 34 34 33 32 32 32 33 34 34 35 36 36 36
19 19 20 20 20 20 20 21 21 22 23 24 25 24 24 24 25 25 26 27 27 27 28 28 29 29 30 31 32 33 33 33 33 33 33 33 34 34 35 35 36 36 36 35
Wind_Direction
223 222 226 232 235 237 236 233 238 243 249 254 253 255 259 258 260 263 265 267 267 269 274 277 280 283 285 287 291 293 292 289 287 288 291 293 296 298 301 302 302 301 301 302
226 226 230 231 231 234 238 238 239 243 241 244 248 251 255 258 259 261 262 264 266 268 271 274 277 278 281 283 286 288 290 290 286 285 287 290 294 296 297 298 299 301 301 301
230 228 230 234 232 236 239 241 242 245 246 246 247 249 252 258 260 260 261 263 265 266 267 268 273 274 277 280 283 286 285 286 287 285 284 286 290 294 296 297 297 299 299 298
233 232 236 235 234 236 241 241 241 244 246 249 250 249 252 257 260 261 261 262 263 264 265 267 270 272 273 275 279 283 286 285 283 282 282 283 287 290 292 293 294 294 296 298
233 237 241 239 235 233 238 241 240 241 244 249 252 253 255 256 258 261 262 263 262 262 264 266 270 271 272 275 278 280 283 286 285 284 285 285 285 288 291 292 294 294 293 294
234 235 238 242 238 235 240 244 241 242 243 247 253 255 257 256 258 260 261 262 261 261 263 266 268 270 271 275 276 278 279 282 284 285 284 284 285 287 289 289 290 292 293 294
233 235 236 236 239 238 240 244 243 244 244 246 249 252 254 256 257 259 260 260 260 261 263 265 269 270 272 273 275 277 278 281 284 283 284 283 284 285 287 290 291 292 294 294
231 233 236 235 235 237 241 244 245 246 247 247 248 251 252 254 256 257 258 259 259 260 262 265 267 269 270 272 273 275 277 279 281 282 282 282 282 283 287 289 291 292 293 293
233 237 239 237 234 237 240 243 244 246 248 249 248 249 251 254 255 256 258 260 260 261 263 265 267 268 270 271 272 273 275 277 279 280 282 283 282 282 285 287 288 290 291 293
236 238 238 238 236 238 241 244 244 246 249 251 251 251 251 254 256 257 258 260 261 261 263 265 265 267 269 271 271 272 273 276 278 280 282 284 284 284 285 287 288 289 290 291
234 236 236 238 239 240 242 245 245 246 247 250 252 252 251 252 253 255 257 259 261 261 261 263 266 267 268 270 271 272 273 275 277 279 282 284 286 286 286 287 289 290 290 293
231 234 237 239 240 242 244 247 248 247 248 249 251 251 251 252 253 255 257 259 259 260 261 263 268 268 269 270 270 272 274 275 277 278 280 282 285 286 287 287 287 288 290 291
235 236 238 240 242 243 245 247 249 250 249 248 250 250 250 250 252 255 258 259 260 261 263 265 268 269 269 270 270 272 275 276 276 278 280 282 283 285 287 288 288 288 288 289
238 240 241 243 243 243 245 248 250 250 250 250 251 250 250 251 253 255 258 260 262 263 264 266 268 269 270 271 272 273 275 276 277 278 280 281 282 284 285 287 288 288 287 287
240 241 243 244 244 244 245 248 249 250 251 250 249 250 252 254 256 257 259 260 262 264 265 266 267 269 271 272 273 274 275 276 278 279 281 282 283 284 286 287 288 289 288 286
241 239 239 241 242 242 243 245 247 249 249 249 251 253 255 256 257 258 258 259 262 264 266 267 268 269 270 272 273 274 275 277 278 280 281 283 284 285 286 287 288 289 289 288
241 241 240 241 242 243 243 244 245 247 249 251 254 255 255 255 257 258 259 261 263 264 265 267 269 271 272 272 273 273 275 277 279 281 283 284 285 286 287 287 288 289 290 291
241 242 243 244 243 243 244 244 245 247 249 250 253 254 255 257 258 259 260 262 263 264 265 266 267 269 270 272 273 274 275 277 280 282 283 285 286 287 287 287 288 288 289 290
241 243 245 245 243 243 245 245 247 249 249 251 253 255 256 256 257 259 260 261 262 264 266 266 267 269 269 271 273 274 276 278 280 282 283 285 287 288 288 287 287 287 288 289
241 241 242 242 243 244 244 245 246 247 249 252 255 256 255 255 257 258 260 261 263 264 265 266 267 268 269 272 274 276 278 279 281 283 285 287 289 289 289 287 286 287 288 289
239 240 242 244 244 244 245 245 246 247 249 251 254 256 256 257 257 258 259 261 262 264 266 266 266 267 271 273 274 276 278 280 282 283 285 287 289 290 290 289 289 288 288 291
239 241 243 243 243 244 244 247 247 247 248 250 253 256 259 260 259 260 261 262 264 265 265 266 267 269 272 273 274 275 278 281 284 285 287 289 290 289 288 289 289 290 290 290
240 242 243 243 243 246 246 247 247 248 249 251 254 256 258 259 260 262 264 264 265 266 265 267 269 270 272 274 275 277 279 282 285 286 287 288 289 289 288 289 290 291 291 290
242 242 243 243 243 246 248 248 248 248 250 252 254 256 258 260 261 263 264 266 266 265 265 267 268 270 271 273 276 278 280 282 285 287 287 288 288 288 287 288 289 291 291 291
243 244 245 245 245 246 248 249 250 251 251 251 253 255 258 260 262 264 266 266 265 264 265 267 270 271 273 275 278 281 283 284 286 287 288 289 289 288 288 288 289 291 292 292
243 245 245 246 249 248 249 250 250 251 251 252 253 255 258 260 263 264 264 265 266 268 269 270 271 272 274 276 279 282 284 284 285 285 287 288 289 290 290 291 291 291 292 292
240 242 246 248 250 249 249 250 251 251 252 254 256 257 261 262 262 263 265 267 269 271 273 273 274 274 275 278 279 281 284 286 287 287 288 289 289 291 292 292 292 292 292 292
Height
5866 5871 5875 5878 5880 5884 5886 5889 5892 5894 5894 5894 5893 5894 5895 5895 5896 5896 5896 5897 5898 5898 5897 5896 5897 5898 5897 5897 5897 5896 5896 5895 5895 5895 5894 5894 5893 5892 5891 5891 5890 5889 5888 5887
5860 5864 5868 5871 5874 5877 5880 5883 5885 5887 5888 5888 5888 5889 5889 5890 5891 5891 5892 5893 5894 5894 5894 5893 5893 5894 5895 5894 5894 5894 5893 5893 5892 5892 5891 5891 5890 5889 5888 5887 5886 5886 5885 5884
5853 5857 5861 5863 5867 5871 5874 5877 5879 5880 5882 5883 5883 5884 5884 5884 5886 5886 5887 5889 5889 5889 5890 5890 5890 5891 5891 5891 5891 5890 5890 5889 5889 5888 5888 5887 5886 5885 5885 5884 5883 5882 5881 5880
5846 5850 5853 5859 5862 5865 5868 5870 5872 5873 5875 5876 5876 5877 5878 5879 5880 5881 5882 5883 5884 5885 5885 5886 5886 5886 5887 5887 5887 5887 5886 5886 5885 5884 5884 5883 5882 5881 5880 5879 5878 5877 5876 5875
5839 5842 5846 5852 5854 5857 5860 5862 5865 5866 5867 5869 5869 5870 5871 5872 5874 5875 5876 5877 5879 5880 5880 5881 5881 5882 5882 5882 5882 5882 5882 5881 5880 5880 5879 5878 5878 5876 5875 5874 5873 5872 5871 5869
5831 5835 5840 5845 5848 5850 5854 5854 5857 5859 5860 5861 5862 5864 5864 5865 5867 5869 5870 5872 5873 5874 5875 5876 5876 5877 5877 5877 5877 5877 5876 5876 5875 5875 5874 5873 5872 5871 5870 5869 5868 5866 5865 5864
5824 5827 5831 5837 5840 5843 5846 5847 5849 5850 5852 5854 5855 5857 5857 5858 5860 5862 5864 5865 5866 5867 5869 5870 5870 5871 5871 5871 5871 5871 5870 5870 5869 5869 5868 5867 5867 5865 5864 5863 5862 5860 5859 5857
5816 5819 5825 5828 5831 5834 5836 5838 5840 5841 5843 5845 5846 5849 5850 5851 5853 5855 5857 5858 5859 5861 5862 5863 5864 5864 5865 5865 5865 5864 5864 5863 5863 5862 5861 5861 5860 5858 5857 5856 5855 5853 5851 5850
5809 5814 5816 5819 5821 5824 5827 5829 5831 5833 5834 5836 5838 5840 5842 5843 5846 5848 5850 5851 5853 5854 5855 5856 5857 5857 5858 5858 5857 5857 5857 5857 5856 5855 5854 5853 5852 5851 5850 5848 5847 5845 5843 5842
5801 5804 5807 5810 5813 5815 5817 5820 5822 5824 5825 5826 5828 5830 5833 5836 5838 5841 5842 5844 5845 5847 5848 5849 5849 5850 5850 5850 5850 5850 5849 5849 5849 5848 5847 5846 5844 5843 5841 5840 5838 5837 5835 5833
5792 5796 5799 5801 5804 5807 5810 5811 5813 5816 5817 5818 5820 5822 5825 5828 5830 5833 5835 5836 5837 5839 5840 5840 5841 5841 5842 5842 5841 5841 5841 5841 5840 5839 5839 5837 5836 5835 5834 5832 5830 5827 5826 5824
5783 5786 5789 5792 5795 5798 5800 5802 5805 5807 5809 5811 5812 5814 5816 5819 5822 5824 5826 5827 5829 5830 5831 5832 5831 5832 5833 5833 5833 5833 5832 5832 5831 5831 5830 5829 5827 5826 5825 5823 5821 5819 5817 5814
5773 5777 5780 5784 5787 5789 5792 5794 5796 5798 5800 5802 5803 5805 5808 5811 5813 5816 5817 5819 5820 5822 5822 5823 5823 5824 5824 5823 5823 5823 5823 5822 5822 5821 5820 5819 5818 5817 5815 5814 5812 5809 5807 5804
5764 5767 5771 5775 5778 5781 5783 5785 5786 5788 5790 5793 5794 5796 5799 5802 5804 5807 5809 5810 5811 5812 5813 5814 5814 5814 5814 5814 5813 5813 5813 5812 5812 5811 5810 5809 5808 5806 5804 5803 5801 5799 5797 5794
5756 5759 5762 5766 5769 5772 5774 5775 5777 5779 5782 5784 5786 5788 5791 5793 5795 5798 5800 5801 5802 5802 5803 5803 5804 5805 5804 5804 5803 5803 5803 5802 5801 5800 5799 5798 5797 5795 5793 5791 5789 5787 5785 5783
5746 5749 5752 5756 5759 5762 5765 5766 5768 5770 5772 5774 5777 5779 5782 5784 5786 5788 5790 5791 5792 5792 5793 5794 5794 5795 5795 5794 5793 5792 5792 5792 5791 5790 5789 5787 5786 5784 5782 5780 5777 5775 5773 5771
5737 5740 5743 5747 5750 5752 5755 5756 5757 5759 5762 5765 5768 5770 5772 5774 5776 5778 5780 5781 5782 5782 5783 5784 5784 5785 5784 5784 5783 5783 5782 5782 5781 5779 5778 5777 5775 5773 5771 5769 5766 5764 5762 5760
5729 5732 5734 5737 5740 5742 5744 5747 5749 5750 5752 5755 5758 5760 5762 5765 5766 5768 5769 5771 5772 5773 5773 5774 5774 5775 5775 5774 5773 5773 5772 5772 5771 5770 5768 5766 5764 5762 5759 5757 5755 5753 5751 5749
5720 5723 5725 5727 5730 5733 5735 5738 5740 5742 5744 5746 5748 5750 5751 5753 5756 5757 5759 5760 5762 5762 5763 5764 5764 5764 5765 5765 5764 5763 5763 5762 5760 5759 5758 5756 5754 5751 5749 5747 5745 5743 5741 5738
5713 5715 5718 5720 5723 5725 5727 5730 5731 5733 5735 5737 5739 5741 5741 5744 5746 5748 5749 5750 5751 5752 5753 5754 5754 5755 5755 5755 5754 5753 5753 5751 5750 5748 5747 5745 5743 5740 5738 5736 5734 5732 5729 5727
5705 5708 5710 5713 5715 5717 5719 5721 5724 5726 5727 5729 5731 5732 5734 5735 5736 5738 5739 5741 5742 5742 5743 5744 5744 5745 5745 5745 5745 5744 5743 5742 5740 5738 5736 5734 5732 5730 5727 5725 5723 5721 5719 5716
5699 5701 5703 5705 5707 5709 5711 5713 5715 5717 5720 5721 5723 5724 5726 5726 5727 5728 5730 5731 5732 5732 5733 5734 5735 5735 5735 5735 5735 5734 5733 5732 5730 5728 5726 5724 5721 5719 5716 5714 5712 5710 5708 5706
5692 5694 5696 5698 5700 5702 5703 5705 5708 5710 5712 5714 5716 5717 5718 5719 5720 5721 5722 5722 5723 5723 5724 5724 5725 5726 5725 5725 5725 5724 5723 5721 5720 5718 5716 5713 5711 5708 5706 5704 5701 5699 5697 5694
5686 5688 5690 5692 5694 5695 5697 5699 5701 5703 5705 5707 5709 5710 5711 5712 5712 5713 5714 5714 5714 5715 5715 5716 5716 5716 5716 5716 5715 5715 5713 5711 5710 5708 5706 5703 5701 5699 5696 5694 5692 5689 5687 5684
5680 5682 5684 5686 5688 5690 5691 5692 5694 5696 5698 5700 5702 5703 5704 5704 5705 5706 5706 5706 5707 5707 5707 5708 5708 5708 5708 5707 5706 5705 5703 5702 5700 5698 5696 5693 5691 5689 5686 5684 5681 5678 5676 5673
5676 5678 5679 5681 5682 5684 5685 5687 5689 5690 5692 5694 5695 5696 5697 5697 5698 5699 5699 5699 5699 5699 5700 5700 5700 5700 5699 5699 5698 5696 5694 5693 5691 5689 5686 5684 5682 5679 5677 5674 5671 5668 5665 5663
5671 5672 5674 5676 5677 5679 5680 5682 5683 5685 5686 5687 5688 5689 5690 5691 5691 5692 5692 5692 5693 5693 5692 5692 5692 5691 5691 5690 5689 5687 5685 5683 5681 5679 5677 5674 5672 5670 5667 5664 5661 5658 5655 5652